Current weather by "City, St" or "zip code"  
 
Advertise Here

Current Conditions: Cloquet Carlton County Airport, MN

Fair


68.0 F

Last Updated on Aug 4 2020, 4:55 pm CDT
Humidity: 46%
Wind Speed: E 6.9 mph
Barometer 30.10 in
Dewpoint: 46.4 F
Visibility: 10.00 mi
Precip: --
Heat Index: NA
Wind Chill: NA
Current conditions at:

Cloquet Carlton County Airport, MN (KCOQ)

Lat: 46.69869 Lon: 92.5034

Local Radar Image active severe weather and emergency alerts image image weather storm and storm spotter reports image weather observation monitoring service image
Local
Radar
Active
Alerts
Storm Reports Obs
Monitoring

Sign-up For Email & Text Message Weather Alert Notification Services


Advertise Here

Observation History for Cloquet Carlton County Airport, MN


Time Wind
(mph)
Vis
(mi)
Weather Precip (in) Temperature (F) Relative
Humidity
Wind
Chill
(F)
Heat
Index
(F)
Pressure
Air Dwpt altimeter
(in)
sea level
(mb)
Rmks
4:55 pm CDT E 6.9 10.00 Fair -- 68.0 46.4 46% NA NA 30.10 M
3:55 pm CDT E 4.6 10.00 Partly Cloudy -- 70.0 46.4 43% NA NA 30.12 M
2:55 pm CDT NE 5.8 10.00 Fair -- 68.0 46.4 46% NA NA 30.13 M
1:55 pm CDT E 6.9 10.00 Partly Cloudy -- 66.0 46.4 49% NA NA 30.14 M
12:55 pm CDT E 6.9 10.00 Fair -- 66.0 46.4 49% NA NA 30.15 M
11:55 am CDT E 4.6 10.00 Fair -- 64.0 46.4 52% NA NA 30.16 M
10:55 am CDT SE 4.6 10.00 Fair -- 64.0 48.2 56% NA NA 30.16 M
9:55 am CDT E 8.1 10.00 Fair -- 63.0 48.2 60% 63 NA 30.16 M
8:55 am CDT E 5.8 10.00 Fair -- 61.0 51.8 72% 61 NA 30.15 M
7:55 am CDT E 4.6 10.00 Partly Cloudy -- 57.0 51.8 82% 57 NA 30.15 M
6:55 am CDT N 0.0 10.00 Partly Cloudy -- 52.0 46.4 82% NA NA 30.16 M
5:55 am CDT N 0.0 10.00 Partly Cloudy -- 46.0 44.6 93% NA NA 30.16 M
4:55 am CDT NW 4.6 10.00 Partly Cloudy -- 48.0 46.4 94% 46 NA 30.15 M
3:55 am CDT N 0.0 10.00 Fair -- 50.0 46.4 88% NA NA 30.14 M
2:55 am CDT N 0.0 10.00 Fair -- 54.0 48.2 82% NA NA 30.15 M
1:55 am CDT N 0.0 10.00 Mostly Cloudy -- 55.0 48.2 77% NA NA 30.16 M
12:55 am CDT N 4.6 10.00 Mostly Cloudy -- 55.0 46.4 72% 54 NA 30.17 M
11:55 pm CDT N 0.0 10.00 Overcast -- 57.0 48.2 72% NA NA 30.15 M
10:55 pm CDT W 4.6 10.00 Mostly Cloudy -- 57.0 46.4 67% 57 NA 30.15 M
9:55 pm CDT N 0.0 10.00 Fair -- 55.0 48.2 77% NA NA 30.15 M
8:55 pm CDT N 0.0 10.00 Fair -- 57.0 50.0 77% NA NA 30.14 M
7:55 pm CDT N 0.0 10.00 Fair -- 66.0 48.2 52% NA NA 30.14 M
6:55 pm CDT W 3.5 10.00 Fair -- 70.0 44.6 40% NA NA 30.15 M
5:55 pm CDT W 6.9 10.00 Partly Cloudy -- 68.0 42.8 40% NA NA 30.16 M

Regional Weather Observation


Duluth International Airport, MN (KDLH)

A Few Clouds
67.0 F

Richard I. Bong Airport, WI (KSUW)

Fair
68.0 F

Duluth - Sky Harbor Airport, MN (KDYT)

Fair
66.0 F

Moose Lake Carlton County Airport, MN (KMZH)

Fair
73.0 F

Chisholm-Hibbing Airport, MN (KHIB)

Partly Cloudy
71.0 F

Eveleth-Virginia Municipal Airport, MN (KEVM)

Fair
71.0 F